Location: Noordwijk
(52.2400°N, 4.4500°E)
Time: 06:24:29
(UTC+00:00)

AO-85 - Pass Details

Date: 02 December 2022
Orbit: 516 x 753 km, 64.8° (Epoch: 04 January)

Event Time Altitude Azimuth Distance (km) Brightness Sun altitude
Rises 18:25:32 0° 280° (W) 2,910 ? -25.4°
Reaches altitude 10° 18:28:31 10° 300° (WNW) 1,953 ? -25.8°
Maximum altitude 18:31:33 18° 343° (NNW) 1,458 ? -26.3°
Enters shadow 18:31:39 18° 345° (NNW) 1,457 ? -26.3°
